Regional Weather Roundup
Issued by NWS Cleveland, OH

Home | Current Version | Previous Version | Graphics & Text | Print | Product List | Glossary On
Versions: 1 2 3 4 5 6 7 8 9 10 11 12 13 14 15 16 17 18 19 20 21 22 23 24 25 26 27 28 29 30 31 32 33 34 35 36 37 38 39 40 41 42 43 44 45 46 47 48 49 50
000
ASUS41 KCLE 012000
RWRCLE
OHIO REGIONAL WEATHER ROUNDUP
NATIONAL WEATHER SERVICE WILMINGTON, OH
300 PM EST SUN MAR 01 2015

NOTE: "FAIR" INDICATES FEW OR NO CLOUDS BELOW 12,000 FEET WITH NO
SIGNIFICANT WEATHER AND/OR OBSTRUCTIONS TO VISIBILITY.

OHZ001>008-015>018-024>027-034-035-043-044-012100-
   NORTHWEST OHIO

CITY           SKY/WX    TMP DP  RH WIND       PRES   REMARKS
DEFIANCE       LGT SNOW  24  19  81 NW5       30.28F WCI  18
FINDLAY        LGT SNOW  25  21  85 W3        30.25F VSB 3/4
TOLEDO EXPRESS LGT SNOW  22  18  85 VRB5      30.27F FOG     WCI  16
TOLEDO EXEC    LGT SNOW  24  20  84 W5        30.28F FOG     WCI  18
LIMA           LGT SNOW  27  23  85 NW6       30.25F FOG     WCI  20
$$

OHZ009>014-019>023-028>033-038-089-012100-
   NORTHEAST OHIO

CITY           SKY/WX    TMP DP  RH WIND       PRES   REMARKS
CLE-HOPKINS    LGT SNOW  29  25  85 W5        30.27F VSB 1   WCI  24
CLE-LAKEFRONT  LGT SNOW  26  23  88 W5        30.26S FOG     WCI  20
CUY CO. ARPT   NOT AVBL
LORAIN-ELYRIA  LGT SNOW  27  23  85 W7        30.26F FOG     WCI  19
ASHTABULA      LGT SNOW  28  25  88 SW5       30.23F FOG     WCI  23
AKRON-CANTON   LGT SNOW  32  29  88 SW10      30.21F VSB 1   WCI  24
WOOSTER        NOT AVBL
MANSFIELD      LGT SNOW  29  26  89 NW6       30.22F FOG     WCI  23
YOUNGSTOWN     LGT SNOW  32  29  88 SW7       30.21F VSB 3/4 WCI  26
$$

OHZ042-051>053-060>062-070>072-077>081-012100-
  SOUTHWEST OHIO

CITY           SKY/WX    TMP DP  RH WIND       PRES   REMARKS
CINC-COVINGTON FOG       33  31  92 W3        30.27R VSB 1/2
CINC-LUNKEN    CLOUDY    32  32 100 CALM      30.30F FOG
HAMILTON       CLOUDY    33  30  88 W5        30.29F FOG     WCI  29
DAYTON         NOT AVBL
WRIGHT-PAT AFB NOT AVBL
DAYTON GENERAL CLOUDY    32  30  92 SW5       30.24F FOG     WCI  27
WILMINGTON     CLOUDY    33  30  88 SW7       30.24F FOG     WCI  27
$$

OHZ036-037-039>041-045>050-054>059-063>069-073>076-082>088-012100-
  CENTRAL AND SOUTHEAST OHIO

CITY           SKY/WX    TMP DP  RH WIND       PRES   REMARKS
COLUMBUS       DRIZZLE   32  30  92 SW3       30.26F
OSU AIRPORT    CLOUDY    33  30  88 SW5       30.24F FOG     WCI  29
BOLTON FIELD   CLOUDY    32  32 100 SW3       30.25F
RICKENBACK AFB NOT AVBL
NEWARK         CLOUDY    34  32  92 SW5       30.24F FOG     WCI  30
MARION         LGT SNOW  29  25  85 N5        30.24F FOG     WCI  24
LANCASTER      CLOUDY    35  33  92 SW6       30.26F FOG
ZANESVILLE     MIX PCPN  33  31  92 S5        30.25S FOG     WCI  29
NEW PHILLY     CLOUDY    36  31  82 VRB5      30.25F HAZE
$$



USA.gov is the U.S. government's official web portal to all federal, state and local government web resources and services.